Weather History for Lihue, HI

Change the Weather History Date:

Monday, February 4, 2013

  Actual Average Record
Temperature  
Mean Temperature 70 °F 72 °F  
Max Temperature 76 °F 78 °F 86 °F (1961)
Min Temperature 64 °F 65 °F 55 °F (1993)
Degree Days  
Heating Degree Days 0 0  
Month to date heating degree days 0 0  
Since 1 July heating degree days 0 0  
Cooling Degree Days 5 7  
Month to date cooling degree days 29 28  
Year to date cooling degree days 222 237  
Growing Degree Days 22 (Base 50)    
Moisture  
Dew Point 59 °F    
Average Humidity 68    
Maximum Humidity 78    
Minimum Humidity 57    
Precipitation  
Precipitation T in 0.11 in 5.31 in (1985)
Month to date precipitation T 0.47  
Year to date precipitation 5.88 4.22  
Snow  
Snow 0.00 in - - ()
Month to date snowfall 0.0  
Since 1 July snowfall 0.0  
Snow Depth 0.00 in    
Sea Level Pressure  
Sea Level Pressure 30.16 in    
Wind  
Wind Speed 20 mph (NE)    
Max Wind Speed 26 mph    
Max Gust Speed 32 mph    
Visibility 10 miles    
Events Rain    
T = Trace of Precipitation, MM = Missing Value Source: NWS Daily Summary

Daily Weather History Graph

Daily Weather History Graph

Search for Another Location

Airport:

Trip Planner

Search our weather history database for the weather conditions in past years. The results will help you decide how hot, cold, wet, or windy it might be!

Date:

Astronomy

Feb. 04, 2013 Rise Set
Actual Time 7:14 AM HST 6:28 PM HST
Civil Twilight 6:51 AM HST 6:51 PM HST
Nautical Twilight 6:24 AM HST 7:18 PM HST
Astronomical Twilight 5:57 AM HST 7:44 PM HST
Moon 1:53 AM HST (2/4) 1:12 PM HST (2/4)
Length of Visible Light 12h 00m
Length of Day
11h 14m
Waning Crescent, 35% of the Moon is Illuminated
Feb 4
Waning Crescent
Feb 9
New
Feb 17
First Quarter
Feb 25
Full
Mar 4
Last Quarter

Hourly Weather History & Observations

Time (HST) Temp. Dew Point Humidity Pressure Visibility Wind Dir Wind Speed Gust Speed Precip Events Conditions
1:53 AM 70.0 °F 55.0 °F 59% 30.17 in 10.0 mi NNE 17.3 mph 25.3 mph N/A   Overcast
2:53 AM 70.0 °F 55.9 °F 61% 30.16 in 10.0 mi NE 18.4 mph 27.6 mph N/A   Overcast
3:53 AM 70.0 °F 57.0 °F 63% 30.15 in 10.0 mi NE 19.6 mph - N/A   Overcast
4:53 AM 70.0 °F 55.9 °F 61% 30.16 in 10.0 mi NE 15.0 mph 24.2 mph N/A   Overcast
5:53 AM 70.0 °F 55.9 °F 61% 30.17 in 10.0 mi NNE 13.8 mph - N/A   Overcast
6:53 AM 70.0 °F 55.0 °F 59% 30.18 in 10.0 mi NNE 17.3 mph 25.3 mph N/A   Overcast
7:53 AM 71.1 °F 55.9 °F 59% 30.19 in 10.0 mi NNE 21.9 mph 26.5 mph N/A   Overcast
8:33 AM 71.6 °F 55.4 °F 57% 30.19 in 10.0 mi NE 20.7 mph 27.6 mph N/A   Overcast
8:53 AM 72.0 °F 57.9 °F 61% 30.19 in 10.0 mi NNE 19.6 mph - N/A   Overcast
9:53 AM 72.0 °F 59.0 °F 64% 30.21 in 10.0 mi NE 20.7 mph - N/A   Overcast
10:37 AM 73.4 °F 60.8 °F 65% 30.21 in 10.0 mi NE 16.1 mph - N/A   Overcast
10:53 AM 75.0 °F 60.1 °F 60% 30.21 in 10.0 mi NE 26.5 mph - N/A   Overcast
11:53 AM 75.9 °F 59.0 °F 56% 30.19 in 10.0 mi NNE 20.7 mph 25.3 mph N/A   Partly Cloudy
12:53 PM 75.0 °F 59.0 °F 57% 30.17 in 10.0 mi NNE 21.9 mph 28.8 mph N/A   Scattered Clouds
1:53 PM 75.9 °F 59.0 °F 56% 30.14 in 10.0 mi NE 23.0 mph - N/A   Mostly Cloudy
2:53 PM 73.0 °F 59.0 °F 61% 30.12 in 10.0 mi NNE 23.0 mph - N/A   Mostly Cloudy
3:53 PM 73.0 °F 60.1 °F 64% 30.10 in 10.0 mi NNE 20.7 mph - N/A   Scattered Clouds
4:53 PM 72.0 °F 60.1 °F 66% 30.11 in 10.0 mi NE 23.0 mph - N/A   Mostly Cloudy
5:53 PM 72.0 °F 61.0 °F 68% 30.12 in 10.0 mi NE 23.0 mph - N/A   Overcast
6:53 PM 69.1 °F 62.1 °F 78% 30.12 in 7.0 mi NE 18.4 mph - 0.00 in Rain Light Rain
7:53 PM 69.8 °F 62.6 °F 78% 30.13 in 8.0 mi NE 17.3 mph 26.5 mph 0.00 in Rain Light Rain
8:53 PM 69.8 °F 62.1 °F 76% 30.14 in 10.0 mi NE 20.7 mph 32.2 mph 0.00 in   Overcast
9:15 PM 71.6 °F 62.6 °F 73% 30.16 in 10.0 mi NE 21.9 mph - N/A   Overcast
9:24 PM 69.8 °F 62.6 °F 78% 30.16 in 10.0 mi NE 21.9 mph - N/A   Overcast
9:53 PM 69.8 °F 63.0 °F 79% 30.16 in 10.0 mi NE 20.7 mph - N/A   Overcast
10:53 PM 71.6 °F 63.0 °F 74% 30.15 in 10.0 mi ENE 19.6 mph 26.5 mph N/A   Mostly Cloudy
11:53 PM 70.9 °F 62.1 °F 74% 30.15 in 10.0 mi NE 18.4 mph - N/A   Mostly Cloudy